Погода в Киевском

Россия / Московская область     55°25′45″N   36°52′01″E
темп.,
°C
ветер,
м/с
пор.,
м/с
влажн.,
%
обл.,
%
осадки,
мм/ч
давл.,
гПа
погр.,
м
29 июля, чт
чт2900:00+16ююв269882 0.5 1008223
03:00+17зюз249998 0.6 1007236
06:00+17з3898100 0.2 1007371
09:00+19зсз468572 0.3 1007659
12:00+25зсз465549 0.0 10071535
15:00+26зсз275185 0.1 10061817
18:00+24зсз2762100 0.0 1005252
21:00+20з117535 0.0 100611
30 июля, пт
пт3000:00+19ю2281100 0.1 100522
03:00+17з31097100 2.5 1006310
06:00+17ююз2596100 0.3 1006137
09:00+20юз238634 1.4 1006398
12:00+24юз236770 0.3 10051157
15:00+22з368087 1.3 1005430
18:00+24з366225 0.7 1004960
21:00+20зсз226583 0.7 100550
31 июля, сб
сб3100:00+18зюз2674100 0.0 1006139
03:00+17юз2778100 0.0 1005190
06:00+16зюз3118288 0.1 1005383
09:00+21зюз511550 0.1 10051655
12:00+24зюз610385 0.0 10052219
15:00+25з594288 0.0 10052408
18:00+24з510449 0.0 10062161
21:00+18зюз227086 0.0 100728
1 августа, вс
вс100:00+17зюз2278100 0.0 100931
03:00+15зюз238512 0.0 101054
06:00+16ююз2383100 0.0 101087
09:00+22ю3558100 0.0 1010412
12:00+20ююз2574100 0.2 1009105
15:00+26ююз3106096 1.9 10071232
18:00+20юз289489 2.8 1006229
21:00+19зюз3997100 3.1 1008380
2 августа, пн
пн200:00+17зюз119712 0.0 100911
03:00+16ююз229790 0.0 100934
06:00+17ююз24968 0.0 100997
09:00+23ююз247225 0.0 1008443
12:00+27ю3544100 0.0 10061475
15:00+28ю7953100 0.3 10042083
18:00+23зсз128299 2.8 1003189
21:00+18ююз489643 5.3 1003219